Regional Weather Roundup
Issued by NWS

Home | Current Version | Previous Version | Text Only | Print | Product List | Glossary Off
Versions: 1 2 3 4 5 6 7 8 9 10 11 12 13 14 15 16 17 18 19 20 21 22 23 24 25 26 27 28 29 30 31 32 33 34 35 36 37 38 39 40 41 42 43 44 45 46 47 48 49 50

000
ASUS44 KMEG 242310
RWRTN
TENNESSEE HOURLY STATE WEATHER ROUNDUP
NATIONAL WEATHER SERVICE MEMPHIS TN
600 PM CDT THU APR 24 2014

TNZ002-004-019-021-049-052-054-088>092-250000-
WEST TENNESSEE

CITY           SKY/WX    TMP DP  RH WIND       PRES   REMARKS
MEMPHIS INTL   TSTM      77  56  48 S15       29.75R
NWS MEMPHIS      N/A     78 N/A N/A MISG        N/A
JACKSON        MOSUNNY   78  49  35 S7G17     29.75S
DYERSBURG      CLOUDY    77  48  36 SW9G17    29.76R
UNION CITY     SUNNY     73  54  49 S8        29.73R
PARIS          PTSUNNY   73  49  42 S10       29.75F
LEXINGTON      SUNNY     77  48  36 S12       29.77S
SILERTON         N/A     78  52  39 S3          N/A
SAVANNAH       MOSUNNY   79  51  37 S8        29.79F
$$

TNZ008-025-027-028-033-062-065-066-250000-
NORTH MIDDLE TENNESSEE

CITY           SKY/WX    TMP DP  RH WIND       PRES   REMARKS
NASHVILLE      PTSUNNY   77  46  33 S12       29.80F
DICKSON        PTSUNNY   79  46  31 S13       29.78F
PORTLAND         N/A     75  43  31 S8        29.79
CLARKSVILLE    PTSUNNY   77  47  34 S13       29.75F
SMYRNA         PTSUNNY   78  47  33 S10G17    29.81F
MURFREESBORO   PTSUNNY   79  46  31 SW10      29.82F
COOKEVILLE     SUNNY     77  45  31 W7        29.85F
LIVINGSTON     MOSUNNY   73  35  24 SW9       29.87F
GALLATIN       PTSUNNY   79  46  31 S7        29.81F
CROSSVILLE     MOSUNNY   71  36  27 S7        29.90F
$$

TNZ061-075-076-078-094-096-097-250000-
SOUTH MIDDLE TENNESSEE

CITY           SKY/WX    TMP DP  RH WIND       PRES   REMARKS
LEWISBURG      PTSUNNY   79  52  38 S12       29.81F
FAYETTEVILLE   PTSUNNY   77  50  38 SW8       29.84F
TULLAHOMA      SUNNY     75  46  35 S9        29.85F
WINCHESTER     SUNNY     79  48  34 SW6       29.85F
MCMINNVILLE    SUNNY     77  50  38 SW7       29.85F
COLUMBIA       MOSUNNY   79  59  50 S9        29.78F
SHELBYVILLE    PTSUNNY   75  52  43 S7        29.84F
$$

TNZ017-018-042-046-047-250000-
NORTHEAST TENNESSEE

CITY           SKY/WX    TMP DP  RH WIND       PRES   REMARKS
TRI CITIES     PTSUNNY   76  30  18 N3        29.91F
ELIZABETHTON   CLEAR     73  32  21 CALM      29.92F
$$

TNZ012-013-036-069-073-074-250000-
CENTRAL EAST TENNESSEE

CITY           SKY/WX    TMP DP  RH WIND       PRES   REMARKS
KNOXVILLE      CLOUDY    74  38  27 SW10      29.88S
OAK RIDGE      MOSUNNY   77  31  18 S9G18     29.89S
$$

TNZ083-085-099-250000-
SOUTHEAST TENNESSEE

CITY           SKY/WX    TMP DP  RH WIND       PRES   REMARKS
CHATTANOOGA    PTSUNNY   79  46  31 S12       29.86F
$$

SKY/WX REPORTED AS FAIR MEANS FEW OR NO CLOUDS BELOW
12 THOUSAND FEET.




USA.gov is the U.S. government's official web portal to all federal, state and local government web resources and services.